Ana Sayfa
METAR-TAF:

METAR-TAF

Havaalanları :

Kamışlı Havaalanı

Kamışlı, Suriye

Enlem: 37-03N, Boylam: 041-13E, yükseklik: 455 m

Güncel hava durumu gözlemi

Rapor saat 09:00 UTC de 1 saat ve 2 dakika önce yapıldı.
Rüzgar güney/güneybatıdan 4 kt
Sıcaklık 15°C
Nem 55%
Basınç 1021 hPa
Görüş mesafesi 10 km veya daha fazla
1500 m altında bulut yok ve kümülonimbus yok

METAR: OSKL 190900Z 20004KT CAVOK 15/06 Q1021

Saat: 12:02 (10:02 UTC)


TAF: eksik

4.000'den fazla havaalanı için hava durumu gözlemleri ve tahminleri (METAR ve TAF raporları).

Kullanılabilir istasyonlar harita üzerinde sarı ve kırmızı noktalarla gösterilir.

İstasyonun adını görmek için fareyi noktanın üzerinde gezdirin.

Sonrasında hava gözlem ve tahminlerini görmek için tıklayın.

Haritayı değiştirmek için: yaklaştırmak için siyah artı işaretli yeşil düğmeye ve uzaklaştırmak için de eksi işaretli düğmeye hızla tıklayın; bitişik haritalar için yeşil okları kullanın.


METAR-TAF: